Flag for Poland Weather past 2 weeks in Białystok, Poland

Now
38 °F

Fog.


Feels Like: 38 °F
Forecast: 34 / 46 °F
Wind: 1 mph from East

Location: Bialystok

Current Time: Feb 27, 2015 at 6:48:37 PM

Latest Report: Feb 27, 2015 at 6:00 PM


Visibility: 6 mi

Pressure: 30.01 "Hg

Humidity: 90%

Dew point: 35 °F

Location of BiałystokLocation

Historic Weather in Białystok — Graph

°F

Białystok temperature yesterday

Maximum temperature yesterday: 42 °F (at 3:00 PM)
Minimum temperature yesterday: 38 °F (at 11:00 PM)
Average temperature yesterday: 40 °F

Past Weeks' High & Low Weather Summary

 TemperatureHumidityPressure
High47 °F (Feb 23, 1:00 PM)99% (Feb 13, 9:00 AM)30.79 "Hg (Feb 13, 9:00 AM)
Low18 °F (Feb 17, 6:00 AM)29% (Feb 17, 1:00 PM)29.60 "Hg (Feb 21, 4:00 PM)
Average33 °F79%30.15 "Hg
* Reported Feb 12 5:00 PM — Feb 27 5:00 PM, Białystok, Weather by CustomWeather, © 2015

Note: Actual official high and low records may vary slightly from our data, if they occured in-between our weather recording intervals... More about our weather records

Advertising

Białystok weather history for previous 24 hours

 ConditionsComfort  
Time TempWeatherWind HumidityBarometerVisibility
5:00 PM
Fri, Feb 27
38 °FOvercast.1 mph88%30.01 "Hg9 mi
4:00 PM38 °FOvercast.No wind88%30.01 "Hg10 mi
3:00 PM38 °FLow clouds.1 mph87%30.01 "Hg12 mi
2:00 PM38 °FLow clouds.1 mph89%30.01 "Hg10 mi
1:00 PM38 °FLow clouds.1 mph89%30.01 "Hg8 mi
12:00 PM37 °FDrizzle. Low clouds.1 mph91%30.03 "Hg6 mi
11:00 AM37 °FDrizzle. Low clouds.2 mph92%30.03 "Hg5 mi
10:00 AM36 °FDrizzle. Low clouds.2 mph94%30.03 "Hg4 mi
9:00 AM36 °FDrizzle. Low clouds.1 mph94%30.05 "Hg2 mi
8:00 AM36 °FDrizzle. Low clouds.2 mph94%30.05 "Hg2 mi
7:00 AM36 °FDrizzle. Low clouds.2 mph93%30.06 "Hg2 mi
6:00 AM36 °FFog.2 mph93%30.06 "Hg2 mi
5:00 AM37 °FFog.2 mph92%30.06 "Hg2 mi
2:00 AM37 °FFog.1 mph92%30.09 "Hg2 mi
1:00 AM38 °FFog.2 mph92%30.10 "Hg2 mi
12:00 AM38 °FFog.2 mph91%30.11 "Hg2 mi
11:00 PM
Thu, Feb 26
38 °FFog.2 mph92%30.13 "Hg2 mi
10:00 PM38 °FFog.3 mph96%30.14 "Hg2 mi
9:00 PM39 °FFog.3 mph95%30.15 "Hg2 mi
8:00 PM39 °FFog.2 mph94%30.16 "Hg3 mi
7:00 PM40 °FFog.2 mph92%30.16 "Hg4 mi
6:00 PM40 °FFog.2 mph91%30.17 "Hg4 mi
Weather by CustomWeather, © 2015

See weather overviewHow to use our weather pages